Location: Unspecified
(0.0000°N, 0.0000°E)
Time: 06:41:49
(UTC+00:00)

Vanguard 1 - Pass Details

Date: 22 December 2018
Orbit: 654 x 3829 km, 34.2° (Epoch: 15 June)

Event Time Altitude Azimuth Distance (km) Brightness Sun altitude
Rises 19:05:15 0° 232° (SW) 7,911 16.3 -15.2°
Reaches altitude 10° 19:14:04 10° 215° (SW) 6,927 15.3 -17.2°
Maximum altitude 19:28:20 19° 176° (S) 5,713 14.1 -20.5°
Drops below altitude 10° 19:40:00 10° 137° (SE) 5,645 13.7 -23.1°
Sets 19:45:50 0° 119° (ESE) 6,093 13.8 -24.4°
